CDT,Max TemperatureF,Mean TemperatureF,Min TemperatureF,Max Dew PointF,MeanDew PointF,Min DewpointF,Max Humidity, Mean Humidity, Min Humidity, Max Sea Level PressureIn, Mean Sea Level PressureIn, Min Sea Level PressureIn, Max VisibilityMiles, Mean VisibilityMiles, Min VisibilityMiles, Max Wind SpeedMPH, Mean Wind SpeedMPH, Max Gust SpeedMPH,PrecipitationIn, CloudCover, Events, WindDirDegrees
2012-3-1,75,58,42,33,28,19,62,38,12,29.82,29.64,29.44,10,10,10,22,14,29,0.00,0,,200
2012-3-2,54,46,37,30,24,15,68,46,22,30.02,29.83,29.51,10,10,10,30,17,37,0.00,1,,352
2012-3-3,53,42,30,26,17,8,64,41,21,30.21,30.12,30.03,10,10,10,17,9,25,0.00,1,,314
2012-3-4,69,50,32,35,23,10,63,37,21,30.18,30.12,30.06,10,10,10,15,10,20,0.00,0,,244
2012-3-5,73,54,36,37,31,26,79,45,17,30.29,30.15,29.98,10,10,10,31,13,39,0.00,0,,163
2012-3-6,71,61,51,51,43,32,72,56,39,29.96,29.86,29.74,10,10,10,34,27,43,0.00,0,,180
2012-3-7,75,65,55,59,54,49,90,74,48,29.87,29.79,29.71,10,10,10,28,23,37,0.00,4,,171
2012-3-8,50,41,32,42,31,25,93,81,53,30.55,30.26,29.94,10,7,2,39,27,53,0.19,8,Rain-Snow-Thunderstorm,11
2012-3-9,55,46,37,31,26,21,70,50,27,30.57,30.49,30.41,10,10,10,16,11,21,0.00,3,,43
2012-3-10,51,46,42,43,38,26,100,80,53,30.39,30.20,30.09,10,8,2,16,8,20,0.18,8,Rain,141
2012-3-11,59,50,42,47,43,41,100,87,62,30.06,29.92,29.77,10,7,1,21,12,29,0.00,6,Rain,186
2012-3-12,73,58,42,51,44,36,86,63,39,29.95,29.88,29.77,10,10,10,15,12,,0.00,0,,187
2012-3-13,75,60,44,59,48,36,87,66,33,30.01,29.96,29.91,10,10,10,22,13,29,0.00,0,,186
2012-3-14,73,64,57,63,61,57,100,87,71,30.05,29.97,29.92,10,7,3,23,18,30,0.00,3,,184
2012-3-15,75,68,60,63,61,60,100,89,62,30.05,29.99,29.93,10,5,0,26,19,32,0.00,3,Fog-Rain,189
2012-3-16,75,67,59,64,61,59,100,88,60,30.02,29.94,29.84,10,6,0,29,18,37,0.00,4,Fog-Rain,185
2012-3-17,73,68,62,64,62,59,100,87,71,29.92,29.84,29.78,10,9,6,30,24,38,0.00,4,,177
2012-3-18,71,65,60,63,61,58,94,87,75,29.86,29.77,29.66,10,9,6,29,21,40,0.04,6,Rain-Thunderstorm,163
2012-3-19,64,57,48,61,53,45,100,91,62,29.75,29.68,29.62,10,8,2,30,15,44,0.58,6,Rain-Thunderstorm,155
2012-3-20,59,52,45,47,44,41,90,79,62,29.86,29.76,29.62,10,9,2,16,10,24,0.15,6,Rain-Thunderstorm,148
2012-3-21,57,46,37,45,40,34,97,79,54,29.84,29.81,29.77,10,10,8,25,8,31,0.00,2,Rain-Thunderstorm,18
2012-3-22,55,47,41,45,42,38,96,86,69,29.97,29.84,29.72,10,10,8,14,7,18,0.01,6,Rain,310
2012-3-23,70,54,39,51,45,38,93,73,45,30.05,29.99,29.95,10,10,8,9,6,,0.00,0,,225
2012-3-24,73,60,46,59,52,43,86,75,57,30.06,30.01,29.96,10,10,10,14,8,,0.00,0,,147
2012-3-25,77,64,52,63,57,50,93,78,60,30.08,30.02,29.97,10,10,8,18,11,24,0.00,0,,154
2012-3-26,75,65,57,60,57,55,93,75,59,30.02,29.95,29.88,10,10,5,22,16,29,0.00,0,,174
2012-3-27,75,67,59,62,57,54,83,73,60,29.93,29.89,29.86,10,10,10,26,20,34,0.00,0,,176
2012-3-28,78,69,60,65,61,58,100,83,50,29.97,29.89,29.82,10,8,2,22,17,31,0.00,2,,184
2012-3-29,75,66,57,66,61,57,100,88,69,29.90,29.82,29.71,10,7,0,23,15,28,0.00,1,Fog,179
2012-3-30,75,67,59,62,59,55,96,78,60,29.91,29.81,29.74,10,9,4,17,9,21,0.00,3,,136
2012-3-31,80,66,53,68,62,53,100,90,60,29.89,29.82,29.73,10,4,0,13,5,16,0.00,3,Fog-Rain,115